This is the latest recevied weather packets stored in our database for station/object KB1RMA-4. If no packets are shown the sender has not sent any weather packets the latest 10 day(s).
| Time | Temp. | Humidity | Pressure | Rain* | Wind** | Luminosity | Snow |
|---|---|---|---|---|---|---|---|
| 1788216325 | 20.56° C | 58% | 1018.6 hPa | 0 mm | - | 16 W/m² | - |
| 1788216022 | 20.56° C | 58% | 1018.5 hPa | 0 mm | - | 20 W/m² | - |
| 1788215715 | 21.11° C | 58% | 1018.8 hPa | 0 mm | - | 23 W/m² | - |
| 1788215412 | 21.11° C | 58% | 1018.7 hPa | 0 mm | - | 26 W/m² | - |
| 1788215108 | 21.11° C | 57% | 1018.4 hPa | 0 mm | - | 27 W/m² | - |
| 1788214807 | 21.11° C | 57% | 1018.7 hPa | 0 mm | - | 30 W/m² | - |
| 1788214503 | 21.67° C | 58% | 1018.6 hPa | 0 mm | - | 32 W/m² | - |
| 1788214198 | 21.67° C | 58% | 1018.8 hPa | 0 mm | - | 34 W/m² | - |
| 1788213894 | 21.67° C | 58% | 1018.7 hPa | 0 mm | - | 35 W/m² | - |
| 1788213589 | 21.67° C | 58% | 1018.7 hPa | 0 mm | - | 36 W/m² | - |
| 1788213284 | 22.22° C | 57% | 1018.6 hPa | 0 mm | - | 39 W/m² | - |
| 1788212980 | 22.22° C | 56% | 1018.5 hPa | 0 mm | - | 44 W/m² | - |
| 1788212677 | 22.22° C | 56% | 1018.7 hPa | 0 mm | - | 42 W/m² | - |
| 1788212373 | 22.22° C | 56% | 1018.7 hPa | 0 mm | - | 48 W/m² | - |
| 1788212070 | 22.22° C | 57% | 1018.7 hPa | 0 mm | - | 48 W/m² | - |
| 1788211769 | 22.22° C | 57% | 1018.7 hPa | 0 mm | - | 48 W/m² | - |
| 1788211466 | 22.78° C | 56% | 1018.5 hPa | 0 mm | - | 50 W/m² | - |
| 1788211165 | 23.33° C | 54% | 1018.8 hPa | 0 mm | - | 52 W/m² | - |
| 1788210861 | 24.44° C | 52% | 1018.7 hPa | 0 mm | - | 61 W/m² | - |
| 1788210560 | 24.44° C | 52% | 1018.9 hPa | 0 mm | - | 215 W/m² | - |
| 1788210255 | 25° C | 52% | 1018.8 hPa | 0 mm | - | 226 W/m² | - |
| 1788209951 | 24.44° C | 52% | 1018.7 hPa | 0 mm | - | 193 W/m² | - |
| 1788209647 | 23.89° C | 53% | 1018.7 hPa | 0 mm | - | 248 W/m² | - |
| 1788209347 | 24.44° C | 53% | 1018.9 hPa | 0 mm | - | 260 W/m² | - |
| 1788209046 | 25° C | 52% | 1019 hPa | 0 mm | - | 289 W/m² | - |
* Rain latest hour (hover to see other rain measurements)
** Current wind speed in m/s (hover to see current wind gust speed)